Location: Spruce Knob
(38.6995°N, 79.5330°W)
Time: 10:12:27
(UTC-05:00)

N. Korean satellite - Visible Passes

Search period start: 03 December 2022 00:00
Search period end: 13 December 2022 00:00
Orbit: 421 x 453 km, 97.3° (Epoch: 02 December)

Date Brightness Start Highest point End Pass type
(mag) Time Alt. Az. Time Alt. Az. Time Alt. Az.
03 Dec 7.0 05:23:51 10° NNE 05:27:12 55° E 05:30:30 10° S visible
03 Dec 8.9 17:24:23 10° SSW 17:27:18 28° W 17:30:17 10° NW visible
04 Dec 9.4 04:46:03 10° NE 04:48:12 16° E 04:50:20 10° SE visible
04 Dec 7.5 06:17:55 10° NNW 06:20:40 23° WNW 06:23:24 10° SW visible
05 Dec 6.2 05:38:32 10° N 05:41:56 86° W 05:45:16 10° SSW visible
05 Dec 9.6 17:39:42 10° SW 17:42:05 18° W 17:44:29 10° NW visible
06 Dec 8.7 05:00:08 10° NE 05:02:56 24° E 05:05:44 10° SSE visible
06 Dec 8.0 06:33:09 10° NNW 06:35:13 15° WNW 06:37:16 10° WSW visible
07 Dec 6.4 05:53:12 10° N 05:56:30 50° WNW 05:59:44 10° SSW visible
07 Dec 9.9 17:55:28 10° WSW 17:56:44 12° W 17:58:00 10° WNW visible
08 Dec 7.8 05:14:20 10° NNE 05:17:31 38° E 05:20:39 10° S visible
08 Dec 8.4 06:49:16 10° WNW 06:49:35 10° WNW 06:49:55 10° WNW visible
09 Dec 9.8 04:37:06 10° ENE 04:38:17 11° E 04:39:27 10° ESE visible
09 Dec 7.1 06:07:52 10° N 06:10:53 31° WNW 06:13:51 10° SW visible
10 Dec 6.7 05:28:34 10° NNE 05:31:55 65° ESE 05:35:12 10° S visible
10 Dec 9.1 17:29:06 10° SSW 17:31:56 25° W 17:34:46 10° NW visible
11 Dec 9.2 04:50:21 10° NE 04:52:42 18° E 04:55:00 10° SE visible
11 Dec 7.6 06:22:32 10° NNW 06:25:06 20° WNW 06:27:36 10° WSW visible
12 Dec 6.2 05:42:48 10° N 05:46:08 75° WNW 05:49:25 10° SSW visible
12 Dec 9.6 17:44:00 10° SW 17:46:12 16° W 17:48:24 10° NW visible
